Regional Weather Roundup
Issued by NWS

Home | Current Version | Previous Version | Graphics & Text | Print | Product List | Glossary On
Versions: 1 2 3 4 5 6 7 8 9 10 11 12 13 14 15 16 17 18 19 20 21 22 23 24 25 26 27 28 29 30 31 32 33 34 35 36 37 38 39 40 41 42 43 44 45 46 47 48 49 50
000
ASUS43 KFSD 300010
RWRSD

WEATHER ROUNDUP FOR SOUTH DAKOTA
NATIONAL WEATHER SERVICE SIOUX FALLS SD
700 PM CDT SAT APR 29 2017

NOTE: "FAIR" INDICATES FEW OR NO CLOUDS BELOW 12,000 FEET WITH NO
SIGNIFICANT WEATHER AND/OR OBSTRUCTIONS TO VISIBILITY.


SDZ001>005-009-010-012>017-300100-
NORTHWEST AND NORTH CENTRAL SOUTH DAKOTA

CITY           SKY/WX    TMP DP  RH WIND       PRES   REMARKS
BUFFALO          N/A     57  17  21 VRB3      30.12S
FAITH            N/A     56  19  23 NE6       30.17F
MOBRIDGE       MOSUNNY   59  17  19 NE8       30.16S
$$

SDZ012>016-024>037-041>051-057-063-072>074-300100-
SOUTHWEST AND SOUTH CENTRAL SOUTH DAKOTA

CITY           SKY/WX    TMP DP  RH WIND       PRES   REMARKS
RAPID CTY ARPT SUNNY     54  18  24 NE8       30.17F
PIERRE         CLOUDY    56  13  18 E14       30.16S
CUSTER         SUNNY     42  15  33 E10       30.15F
ELLSWORTH AFB  MOSUNNY   54  18  24 E6        30.17F
PHILIP         MOSUNNY   53  21  28 NE8       30.16F
PINE RIDGE     CLOUDY    50  20  30 N12       30.15F
SPEARFISH      FAIR      48  19  32 E7G16     30.19F
WINNER         FAIR      54  21  27 NE17      30.15R
$$

SDZ004>011-016>023-039-040-300100-
NORTHEAST SOUTH DAKOTA

CITY           SKY/WX    TMP DP  RH WIND       PRES   REMARKS
ABERDEEN       SUNNY     57  17  21 NE13      30.18F
WATERTOWN      CLOUDY    51  22  31 NE17G24   30.17S
BROOKINGS      CLOUDY    51  23  33 NE18G24   30.15R
SISSETON         N/A     56  24  29 NE14      30.19S
$$

SDZ017-020-022-023-036>040-048>070-300100-
SOUTHEAST SOUTH DAKOTA

CITY           SKY/WX    TMP DP  RH WIND       PRES   REMARKS
SIOUX FALLS    CLOUDY    51  25  36 NE18      30.10S
HURON          MOSUNNY   54  24  31 E13       30.16R
CHAMBERLAIN    CLOUDY    55  22  27 N9G17     30.15R
MITCHELL       CLOUDY    54  24  31 NE18      30.15R
YANKTON        CLOUDY    50  21  32 NE16      30.10S
$$

ABBREVIATIONS USED IN REMARKS
   TC - TEMPERATURE IN CELSIUS
  WCI - WIND CHILL INDEX
   HX - HEAT INDEX
  VSB - VISIBILITY





USA.gov is the U.S. government's official web portal to all federal, state and local government web resources and services.